Miscellaneous Local Product
Issued by NWS Hastings, NE

Home | Current Version | Previous Version | Text Only | Print | Product List | Glossary Off
Versions: 1 2 3 4 5 6 7 8 9 10 11 12 13 14 15 16 17 18 19 20 21 22 23 24 25 26 27 28 29 30 31 32 33 34 35 36 37 38 39 40 41 42 43 44 45 46 47 48 49 50

000
AXUS43 KGID 261902
MISGRI

GID CWA HOURLY WEATHER ROUNDUP
NATIONAL WEATHER SERVICE HASTINGS NE
200 PM CDT WED APR 26 2017

NOTE: "FAIR" INDICATES FEW OR NO CLOUDS BELOW 12,000 FEET WITH NO
SIGNIFICANT WEATHER AND/OR OBSTRUCTIONS TO VISIBILITY.

...SOUTH CENTRAL NEBRASKA...

CITY           SKY/WX    TMP DP  RH WIND       PRES   REMARKS
GRAND ISLAND   CLOUDY    42  32  67 N21       29.74S
HASTINGS       CLOUDY    43  31  62 N22G29    29.74F
KEARNEY        CLOUDY    43  28  56 N20G25    29.74S
ORD            CLOUDY    41  30  65 NW20      29.73S
YORK           CLOUDY    43  32  65 NW21G26   29.70F
AURORA         CLOUDY    42  32  67 N21       29.72F
LEXINGTON      PTSUNNY   46  32  58 N20G26    29.74F
HOLDREGE       CLOUDY    43  31  61 NW15G26   29.73F
HEBRON         CLOUDY    46  32  58 N15G28    29.71R

...NEBRASKA PANHANDLE...

CITY           SKY/WX    TMP DP  RH WIND       PRES   REMARKS
CHADRON        CLOUDY    38  29  70 CALM      29.78F
ALLIANCE       SUNNY     45  33  63 NW13      29.73F
SCOTTSBLUFF    SUNNY     52  32  46 MISG      29.72F
SIDNEY         SUNNY     53  32  44 NW13      29.73F

...WESTERN AND NORTH CENTRAL NEBRASKA...

CITY           SKY/WX    TMP DP  RH WIND       PRES   REMARKS
VALENTINE      CLOUDY    37  26  64 NW17G24   29.78S WCI  27
AINSWORTH      CLOUDY    37  31  77 N23       29.76F WCI  26
ONEILL         CLOUDY    40  29  64 NW23      29.74S WCI  29
BROKEN BOW     CLOUDY    41  30  65 N24G30    29.74F
IMPERIAL       SUNNY     51  33  50 N16       29.75F
NORTH PLATTE   SUNNY     47  30  51 N17G26    29.75F
MCCOOK         MOSUNNY   51  32  48 N17G25    29.74F

...EASTERN NEBRASKA...

CITY           SKY/WX    TMP DP  RH WIND       PRES   REMARKS
NORFOLK        CLOUDY    37  30  75 NW16G24   29.70F WCI  28
SO SIOUX CITY  CLOUDY    38  32  79 N18G26    29.69F WCI  28
TEKAMAH        CLOUDY    41  32  70 NW26G36   29.68F
COLUMBUS       CLOUDY    39  30  70 NW20      29.71F WCI  30
ALBION         CLOUDY    41  32  70 NW20G25   29.72F
OMAHA EPPLEY   CLOUDY    45  34  65 NW24      29.64F
OFFUTT AFB     CLOUDY    42  33  71 NW20G29   29.65F
MILLARD        CLOUDY    44  35  70 NW13G25   29.66F
LINCOLN        CLOUDY    44  32  62 NW18      29.70F
NEBRASKA CITY  CLOUDY    44  30  59 NW22      29.66R
BEATRICE       CLOUDY    43  34  70 N20       29.70R
FALLS CITY     PTSUNNY   48  36  63 NW17      29.64S

...NORTHERN KANSAS...

CITY           SKY/WX    TMP DP  RH WIND       PRES   REMARKS
GOODLAND       SUNNY     51  30  44 N22G30    29.74F
HILL CITY      PTSUNNY   53  32  44 NW13G23   29.74F
NORTON         PTCLDY    48  30  49 NW20G25   29.73F
PHILLIPSBURG   CLOUDY    48  32  53 NW18      29.75F
SMITH CENTER   CLOUDY    45  30  57 NW17G24   29.75S
HAYS           CLOUDY    51  33  50 N14G23    29.73F
RUSSELL        CLOUDY    50  32  50 N18G28    29.72F
CONCORDIA      CLOUDY    47  35  63 N17G24    29.70S
SALINA         CLOUDY    53  36  52 N21G28    29.69F
TOPEKA         CLOUDY    52  39  61 N12       29.64R



USA.gov is the U.S. government's official web portal to all federal, state and local government web resources and services.